TimeEDT,TemperatureF,Dew PointF,Humidity,Sea Level PressureIn,VisibilityMPH,Wind Direction,Wind SpeedMPH,Gust SpeedMPH,PrecipitationIn,Events,Conditions,WindDirDegrees,DateUTC
12:35 AM,55.4,53.6,94,30.09,7.0,North,9.2,-,N/A,,Overcast,350,2012-10-09 04:35:00
12:55 AM,55.4,53.6,94,30.09,7.0,North,6.9,-,N/A,,Overcast,360,2012-10-09 04:55:00
1:15 AM,55.4,53.6,94,30.09,7.0,North,6.9,-,N/A,,Overcast,350,2012-10-09 05:15:00
1:55 AM,55.4,53.6,94,30.09,5.0,North,8.1,-,N/A,,Overcast,350,2012-10-09 05:55:00
2:15 AM,55.4,53.6,94,30.09,5.0,North,6.9,-,N/A,,Overcast,360,2012-10-09 06:15:00
2:55 AM,55.4,53.6,94,30.08,3.0,NNW,9.2,-,N/A,,Overcast,340,2012-10-09 06:55:00
3:55 AM,55.4,53.6,94,30.07,7.0,North,8.1,-,N/A,,Overcast,360,2012-10-09 07:55:00
4:15 AM,55.4,53.6,94,30.07,5.0,North,10.4,-,N/A,,Overcast,360,2012-10-09 08:15:00
4:35 AM,55.4,53.6,94,30.07,5.0,NNW,9.2,-,N/A,,Overcast,340,2012-10-09 08:35:00
4:55 AM,53.6,53.6,100,30.07,5.0,North,9.2,-,N/A,,Overcast,350,2012-10-09 08:55:00
5:15 AM,53.6,51.8,94,30.08,5.0,North,8.1,-,N/A,,Overcast,350,2012-10-09 09:15:00
5:35 AM,53.6,53.6,100,30.08,7.0,North,9.2,-,N/A,,Overcast,350,2012-10-09 09:35:00
5:55 AM,55.4,53.6,94,30.08,5.0,NNW,6.9,-,N/A,,Overcast,330,2012-10-09 09:55:00
6:15 AM,55.4,53.6,94,30.09,7.0,NNW,10.4,-,N/A,,Overcast,340,2012-10-09 10:15:00
6:35 AM,55.4,53.6,94,30.09,5.0,North,9.2,-,N/A,,Overcast,350,2012-10-09 10:35:00
6:55 AM,55.4,51.8,88,30.10,7.0,NNW,9.2,-,N/A,,Overcast,340,2012-10-09 10:55:00
7:15 AM,53.6,51.8,94,30.10,7.0,NNW,12.7,-,N/A,,Overcast,340,2012-10-09 11:15:00
7:55 AM,53.6,51.8,94,30.11,5.0,NNW,8.1,-,N/A,,Overcast,330,2012-10-09 11:55:00
8:15 AM,53.6,51.8,94,30.12,5.0,NNW,11.5,-,N/A,,Overcast,340,2012-10-09 12:15:00
8:35 AM,53.6,51.8,94,30.13,7.0,NNW,11.5,-,N/A,,Overcast,340,2012-10-09 12:35:00
8:55 AM,53.6,51.8,94,30.13,7.0,NNW,8.1,16.1,N/A,,Overcast,330,2012-10-09 12:55:00
9:15 AM,53.6,51.8,94,30.14,5.0,NNW,9.2,-,N/A,,Overcast,330,2012-10-09 13:15:00
9:35 AM,53.6,51.8,94,30.14,7.0,North,6.9,10.4,N/A,,Overcast,350,2012-10-09 13:35:00
9:55 AM,53.6,51.8,94,30.14,7.0,NNW,15.0,-,N/A,,Overcast,330,2012-10-09 13:55:00
10:15 AM,55.4,51.8,88,30.14,7.0,NNW,10.4,-,N/A,,Overcast,340,2012-10-09 14:15:00
10:35 AM,55.4,51.8,88,30.15,7.0,North,9.2,-,N/A,,Overcast,350,2012-10-09 14:35:00
10:55 AM,55.4,51.8,88,30.14,7.0,North,13.8,-,N/A,,Overcast,350,2012-10-09 14:55:00
11:15 AM,55.4,51.8,88,30.14,7.0,NNW,12.7,-,N/A,,Overcast,340,2012-10-09 15:15:00
11:35 AM,55.4,51.8,88,30.14,7.0,North,11.5,17.3,N/A,,Overcast,360,2012-10-09 15:35:00
11:55 AM,57.2,51.8,82,30.14,7.0,North,11.5,-,N/A,,Overcast,360,2012-10-09 15:55:00
12:15 PM,59.0,51.8,77,30.14,7.0,NNW,10.4,-,N/A,,Overcast,330,2012-10-09 16:15:00
12:55 PM,60.8,51.8,72,30.13,5.0,NNW,9.2,-,N/A,,Haze,330,2012-10-09 16:55:00
1:15 PM,60.8,51.8,72,30.12,7.0,NW,8.1,-,N/A,,Overcast,320,2012-10-09 17:15:00
1:35 PM,62.6,51.8,68,30.11,7.0,NW,8.1,-,N/A,,Overcast,310,2012-10-09 17:35:00
1:55 PM,62.6,51.8,68,30.11,7.0,NNW,8.1,-,N/A,,Overcast,330,2012-10-09 17:55:00
2:15 PM,62.6,51.8,68,30.10,7.0,NW,9.2,-,N/A,,Mostly Cloudy,320,2012-10-09 18:15:00
2:35 PM,64.4,51.8,64,30.09,7.0,North,10.4,-,N/A,,Mostly Cloudy,360,2012-10-09 18:35:00
2:55 PM,64.4,51.8,64,30.09,7.0,NNW,6.9,-,N/A,,Mostly Cloudy,330,2012-10-09 18:55:00
3:15 PM,64.4,51.8,64,30.08,7.0,North,6.9,-,N/A,,Mostly Cloudy,360,2012-10-09 19:15:00
3:35 PM,64.4,51.8,64,30.09,7.0,NNE,4.6,-,N/A,,Mostly Cloudy,20,2012-10-09 19:35:00
3:55 PM,68.0,53.6,60,30.08,7.0,NNW,4.6,-,N/A,,Mostly Cloudy,330,2012-10-09 19:55:00
4:15 PM,68.0,51.8,56,30.08,7.0,NW,3.5,-,N/A,,Scattered Clouds,310,2012-10-09 20:15:00
4:35 PM,68.0,53.6,60,30.08,7.0,North,9.2,-,N/A,,Scattered Clouds,10,2012-10-09 20:35:00
4:55 PM,68.0,51.8,56,30.07,7.0,North,5.8,-,N/A,,Clear,350,2012-10-09 20:55:00
5:15 PM,68.0,51.8,56,30.07,7.0,NNW,3.5,-,N/A,,Clear,330,2012-10-09 21:15:00
5:35 PM,66.2,51.8,60,30.07,5.0,NNE,5.8,-,N/A,,Haze,30,2012-10-09 21:35:00
5:55 PM,66.2,51.8,60,30.07,7.0,NNW,3.5,-,N/A,,Clear,340,2012-10-09 21:55:00
6:15 PM,66.2,51.8,60,30.07,7.0,NNE,4.6,-,N/A,,Clear,20,2012-10-09 22:15:00
6:35 PM,64.4,51.8,64,30.07,7.0,North,4.6,-,N/A,,Clear,350,2012-10-09 22:35:00
6:55 PM,64.4,53.6,68,30.08,7.0,Calm,Calm,-,N/A,,Clear,0,2012-10-09 22:55:00
7:15 PM,60.8,53.6,77,30.08,10.0,Calm,Calm,-,N/A,,Scattered Clouds,0,2012-10-09 23:15:00
7:35 PM,62.6,55.4,77,30.08,7.0,NNW,4.6,-,N/A,,Clear,340,2012-10-09 23:35:00
7:55 PM,62.6,53.6,72,30.08,10.0,North,4.6,-,N/A,,Clear,360,2012-10-09 23:55:00
8:15 PM,60.8,53.6,77,30.09,10.0,Calm,Calm,-,N/A,,Clear,0,2012-10-10 00:15:00
8:35 PM,59.0,53.6,82,30.09,7.0,Calm,Calm,-,N/A,,Clear,0,2012-10-10 00:35:00
8:55 PM,59.0,53.6,82,30.09,7.0,Calm,Calm,-,N/A,,Clear,0,2012-10-10 00:55:00
9:15 PM,57.2,55.4,94,30.10,7.0,Calm,Calm,-,N/A,,Clear,0,2012-10-10 01:15:00
9:35 PM,57.2,55.4,94,30.11,10.0,Calm,Calm,-,N/A,,Clear,0,2012-10-10 01:35:00
9:55 PM,57.2,55.4,94,30.11,7.0,ENE,4.6,-,N/A,,Clear,70,2012-10-10 01:55:00
10:15 PM,59.0,55.4,88,30.11,7.0,Calm,Calm,-,N/A,,Clear,0,2012-10-10 02:15:00
10:35 PM,59.0,55.4,88,30.11,7.0,NE,11.5,-,N/A,,Clear,40,2012-10-10 02:35:00
10:55 PM,59.0,53.6,82,30.11,10.0,NE,9.2,-,N/A,,Clear,50,2012-10-10 02:55:00
11:15 PM,59.0,53.6,82,30.12,7.0,NE,8.1,-,N/A,,Clear,50,2012-10-10 03:15:00
11:35 PM,57.2,53.6,88,30.12,7.0,NE,10.4,-,N/A,,Scattered Clouds,40,2012-10-10 03:35:00
11:55 PM,57.2,53.6,88,30.12,10.0,NNE,9.2,-,N/A,,Scattered Clouds,30,2012-10-10 03:55:00